Regional Weather Roundup
Issued by NWS Cleveland, OH

Home | Current Version | Previous Version | Graphics & Text | Print | Product List | Glossary On
Versions: 1 2 3 4 5 6 7 8 9 10 11 12 13 14 15 16 17 18 19 20 21 22 23 24 25 26 27 28 29 30 31 32 33 34 35 36 37 38 39 40 41 42 43 44 45 46 47 48 49 50
000
ASUS41 KCLE 302010
RWRCLE
OHIO REGIONAL WEATHER ROUNDUP
NATIONAL WEATHER SERVICE CLEVELAND, OH
400 PM EDT SAT MAY 30 2015

NOTE: "FAIR" INDICATES FEW OR NO CLOUDS BELOW 12,000 FEET WITH NO
SIGNIFICANT WEATHER AND/OR OBSTRUCTIONS TO VISIBILITY.

OHZ001>008-015>018-024>027-034-035-043-044-302100-
   NORTHWEST OHIO

CITY           SKY/WX    TMP DP  RH WIND       PRES   REMARKS
DEFIANCE       MOSUNNY   77  67  71 SW6       29.95F
FINDLAY        LGT RAIN  74  67  78 W15G29    29.96S
TOLEDO EXPRESS CLOUDY    78  67  68 W8        29.94F
TOLEDO EXEC    MOSUNNY   80  66  62 W13       29.96S
LIMA           MOSUNNY   79  68  69 CALM      29.96F
$$

OHZ009>014-019>023-028>033-038-089-302100-
   NORTHEAST OHIO

CITY           SKY/WX    TMP DP  RH WIND       PRES   REMARKS
CLE-HOPKINS    MOSUNNY   83  68  60 S9        29.98F
CLE-LAKEFRONT  MOSUNNY   82  67  60 S6        29.96F
CUY CO. ARPT   PTSUNNY   81  68  65 SW12      29.99F
LORAIN-ELYRIA  PTSUNNY   81  68  64 SW12      29.97F
ASHTABULA      CLOUDY    80  69  69 SW13      30.00F
AKRON-CANTON   PTSUNNY   80  66  62 CALM      30.02F
WOOSTER        PTSUNNY   81  65  58 SW13G22   30.01F
MANSFIELD      MOSUNNY   83  67  58 S15       30.00F
YOUNGSTOWN     PTSUNNY   80  68  66 S10       30.02F
$$

OHZ042-051>053-060>062-070>072-077>081-302100-
  SOUTHWEST OHIO

CITY           SKY/WX    TMP DP  RH WIND       PRES   REMARKS
CINC-COVINGTON PTSUNNY   84  67  56 S13G23    29.99
CINC-LUNKEN    MOSUNNY   82  71  69 S6        29.98F
HAMILTON       MOSUNNY   84  66  54 S9G20     29.98F
DAYTON         MOSUNNY   86  64  47 S17G28    29.98F
WRIGHT-PAT AFB TSTM      82  66  57 S22G33    29.98F
DAYTON GENERAL MOSUNNY   83  67  58 S17G23    29.98F
WILMINGTON     TSTM      73  66  78 W8        30.00F
$$

OHZ036-037-039>041-045>050-054>059-063>069-073>076-082>088-302100-
  CENTRAL AND SOUTHEAST OHIO

CITY           SKY/WX    TMP DP  RH WIND       PRES   REMARKS
COLUMBUS       LGT RAIN  75  69  81 S6        30.00S
OSU AIRPORT    PTSUNNY   83  64  52 S17G26    29.99F
BOLTON FIELD   PTSUNNY   75  66  73 S15G25    30.01F
RICKENBACK AFB PTSUNNY   83  67  58 S14       29.99F
NEWARK         RAIN      76  67  73 S8G25     30.01F
MARION         MOSUNNY   87  61  41 SW15G25   29.97F
LANCASTER      MOSUNNY   83  67  58 S14       30.02F
ZANESVILLE     NOT AVBL
NEW PHILLY     MOSUNNY   84  68  58 S10       30.03F
$$



USA.gov is the U.S. government's official web portal to all federal, state and local government web resources and services.